Time,TemperatureF,DewpointF,PressureIn,WindDirection,WindDirectionDegrees,WindSpeedMPH,WindSpeedGustMPH,Humidity,HourlyPrecipIn,Conditions,Clouds,dailyrainin,SoftwareType,DateUTC
2013-02-25 01:01:00,1.0,-4.0,-100.00,North,-999,0.0,0.0,80,-99.99,,,-99.99,,2013-02-25 09:01:00,
2013-02-25 01:12:00,-1.0,-5.0,-100.00,East,95,0.0,2.0,82,-99.99,,,-99.99,,2013-02-25 09:12:00,
2013-02-25 01:21:00,3.0,-1.0,-100.00,North,-999,0.0,0.0,83,-99.99,,,-99.99,,2013-02-25 09:21:00,
2013-02-25 01:31:00,2.0,-3.0,-100.00,North,-999,0.0,0.0,82,-99.99,,,-99.99,,2013-02-25 09:31:00,
2013-02-25 01:41:00,1.0,-3.0,-100.00,ENE,58,1.0,4.0,80,-99.99,,,-99.99,,2013-02-25 09:41:00,
2013-02-25 01:51:00,3.0,-1.0,-100.00,NNE,18,1.0,4.0,83,-99.99,,,-99.99,,2013-02-25 09:51:00,
2013-02-25 02:01:00,0.0,-3.0,-100.00,NNE,20,1.0,3.0,83,-99.99,,,-99.99,,2013-02-25 10:01:00,
2013-02-25 02:11:00,1.0,-4.0,-100.00,NE,44,0.0,2.0,81,-99.99,,,-99.99,,2013-02-25 10:11:00,
2013-02-25 02:21:00,0.0,-3.0,-100.00,East,92,0.0,1.0,83,-99.99,,,-99.99,,2013-02-25 10:21:00,
2013-02-25 02:31:00,-1.0,-5.0,-100.00,ESE,104,0.0,2.0,83,-99.99,,,-99.99,,2013-02-25 10:31:00,
2013-02-25 02:41:00,0.0,-3.0,-100.00,South,188,2.0,3.0,84,-99.99,,,-99.99,,2013-02-25 10:41:00,
2013-02-25 02:52:00,0.0,-3.0,-100.00,South,188,2.0,3.0,84,-99.99,,,-99.99,,2013-02-25 10:52:00,
2013-02-25 03:11:00,0.0,-5.0,-100.00,ESE,107,5.0,7.0,80,-99.99,,,-99.99,,2013-02-25 11:11:00,
2013-02-25 03:21:00,1.0,-3.0,-100.00,East,86,1.0,2.0,81,-99.99,,,-99.99,,2013-02-25 11:21:00,
2013-02-25 03:32:00,2.0,-2.0,-100.00,ENE,75,0.0,2.0,82,-99.99,,,-99.99,,2013-02-25 11:32:00,
2013-02-25 03:42:00,1.0,-2.0,-100.00,North,3,0.0,3.0,84,-99.99,,,-99.99,,2013-02-25 11:42:00,
2013-02-25 03:52:00,2.0,-2.0,-100.00,West,274,0.0,2.0,84,-99.99,,,-99.99,,2013-02-25 11:52:00,
2013-02-25 04:01:00,1.0,-2.0,-100.00,North,-999,0.0,0.0,84,-99.99,,,-99.99,,2013-02-25 12:01:00,
2013-02-25 04:11:00,1.0,-4.0,-100.00,SE,140,0.0,4.0,79,-99.99,,,-99.99,,2013-02-25 12:11:00,
2013-02-25 04:32:00,0.0,-4.0,-100.00,ESE,110,2.0,5.0,82,-99.99,,,-99.99,,2013-02-25 12:32:00,
2013-02-25 04:42:00,0.0,-4.0,-100.00,ESE,104,5.0,6.0,81,-99.99,,,-99.99,,2013-02-25 12:42:00,
2013-02-25 04:53:00,0.0,-4.0,-100.00,SE,134,3.0,4.0,82,-99.99,,,-99.99,,2013-02-25 12:53:00,
2013-02-25 05:02:00,1.0,-4.0,-100.00,ESE,114,3.0,5.0,79,-99.99,,,-99.99,,2013-02-25 13:02:00,
2013-02-25 05:12:00,1.0,-4.0,-100.00,East,93,5.0,7.0,81,-99.99,,,-99.99,,2013-02-25 13:12:00,
2013-02-25 05:22:00,2.0,-2.0,-100.00,ESE,104,4.0,6.0,82,-99.99,,,-99.99,,2013-02-25 13:22:00,
2013-02-25 05:32:00,0.0,-5.0,-100.00,South,174,1.0,4.0,77,-99.99,,,-99.99,,2013-02-25 13:32:00,
2013-02-25 05:42:00,-1.0,-6.0,-100.00,North,-999,0.0,0.0,80,-99.99,,,-99.99,,2013-02-25 13:42:00,
2013-02-25 05:51:00,-1.0,-5.0,-100.00,North,-999,0.0,0.0,83,-99.99,,,-99.99,,2013-02-25 13:51:00,
2013-02-25 06:02:00,0.0,-4.0,-100.00,North,-999,0.0,0.0,85,-99.99,,,-99.99,,2013-02-25 14:02:00,
2013-02-25 06:31:00,-1.0,-5.0,-100.00,SE,138,5.0,7.0,83,-99.99,,,-99.99,,2013-02-25 14:31:00,
2013-02-25 06:52:00,-2.0,-6.0,-100.00,ESE,114,5.0,6.0,83,-99.99,,,-99.99,,2013-02-25 14:52:00,
2013-02-25 07:02:00,1.0,-3.0,-100.00,SE,137,5.0,6.0,83,-99.99,,,-99.99,,2013-02-25 15:02:00,
2013-02-25 07:11:00,1.0,-3.0,-100.00,SE,137,5.0,6.0,83,-99.99,,,-99.99,,2013-02-25 15:11:00,
2013-02-25 07:21:00,2.0,-3.0,-100.00,ESE,120,2.0,4.0,78,-99.99,,,-99.99,,2013-02-25 15:21:00,
2013-02-25 07:32:00,1.0,-4.0,-100.00,East,97,4.0,6.0,76,-99.99,,,-99.99,,2013-02-25 15:32:00,
2013-02-25 07:41:00,4.0,-1.0,-100.00,SE,124,4.0,6.0,80,-99.99,,,-99.99,,2013-02-25 15:41:00,
2013-02-25 07:51:00,6.0,0.0,-100.00,ESE,123,3.0,6.0,75,-99.99,,,-99.99,,2013-02-25 15:51:00,
2013-02-25 08:01:00,9.0,3.0,-100.00,ESE,117,2.0,5.0,76,-99.99,,,-99.99,,2013-02-25 16:01:00,
2013-02-25 08:11:00,13.0,5.0,-100.00,SSE,167,0.0,1.0,68,-99.99,,,-99.99,,2013-02-25 16:11:00,
2013-02-25 08:21:00,14.0,5.0,-100.00,North,-999,0.0,0.0,69,-99.99,,,-99.99,,2013-02-25 16:21:00,
2013-02-25 08:31:00,13.0,5.0,-100.00,North,-999,0.0,0.0,72,-99.99,,,-99.99,,2013-02-25 16:31:00,
2013-02-25 08:42:00,15.0,6.0,-100.00,North,-999,0.0,0.0,68,-99.99,,,-99.99,,2013-02-25 16:42:00,
2013-02-25 08:51:00,14.0,5.0,-100.00,East,83,0.0,2.0,65,-99.99,,,-99.99,,2013-02-25 16:51:00,
2013-02-25 09:01:00,16.0,6.0,-100.00,ESE,107,0.0,1.0,63,-99.99,,,-99.99,,2013-02-25 17:01:00,
2013-02-25 09:11:00,18.0,8.0,-100.00,North,-999,0.0,0.0,62,-99.99,,,-99.99,,2013-02-25 17:11:00,
2013-02-25 09:21:00,19.0,7.0,-100.00,North,-999,0.0,0.0,59,-99.99,,,-99.99,,2013-02-25 17:21:00,
2013-02-25 09:31:00,19.0,8.0,-100.00,North,-999,0.0,0.0,60,-99.99,,,-99.99,,2013-02-25 17:31:00,
2013-02-25 09:41:00,21.0,8.0,-100.00,North,-999,0.0,0.0,57,-99.99,,,-99.99,,2013-02-25 17:41:00,
2013-02-25 09:52:00,23.0,8.0,-100.00,North,-999,0.0,0.0,51,-99.99,,,-99.99,,2013-02-25 17:52:00,
2013-02-25 10:01:00,24.0,9.0,-100.00,East,100,0.0,2.0,51,-99.99,,,-99.99,,2013-02-25 18:01:00,
2013-02-25 10:12:00,24.0,9.0,-100.00,East,100,0.0,2.0,51,-99.99,,,-99.99,,2013-02-25 18:12:00,
2013-02-25 10:21:00,29.0,8.0,-100.00,SSE,158,0.0,4.0,40,-99.99,,,-99.99,,2013-02-25 18:21:00,
2013-02-25 10:32:00,30.0,9.0,-100.00,SE,145,1.0,4.0,41,-99.99,,,-99.99,,2013-02-25 18:32:00,
2013-02-25 10:41:00,27.0,7.0,-100.00,East,88,3.0,5.0,41,-99.99,,,-99.99,,2013-02-25 18:41:00,
2013-02-25 10:51:00,27.0,7.0,-100.00,East,88,3.0,5.0,41,-99.99,,,-99.99,,2013-02-25 18:51:00,
2013-02-25 11:01:00,30.0,9.0,-100.00,ENE,76,4.0,7.0,41,-99.99,,,-99.99,,2013-02-25 19:01:00,
2013-02-25 11:11:00,30.0,11.0,-100.00,ESE,102,4.0,6.0,44,-99.99,,,-99.99,,2013-02-25 19:11:00,
2013-02-25 11:21:00,32.0,10.0,-100.00,ESE,110,5.0,7.0,39,-99.99,,,-99.99,,2013-02-25 19:21:00,
2013-02-25 11:31:00,32.0,10.0,-100.00,ESE,110,5.0,7.0,39,-99.99,,,-99.99,,2013-02-25 19:31:00,
2013-02-25 11:42:00,37.0,9.0,-100.00,SE,127,3.0,6.0,30,-99.99,,,-99.99,,2013-02-25 19:42:00,
2013-02-25 11:52:00,39.0,3.0,-100.00,South,178,2.0,5.0,22,-99.99,,,-99.99,,2013-02-25 19:52:00,
2013-02-25 12:01:00,38.0,5.0,-100.00,SE,134,2.0,5.0,24,-99.99,,,-99.99,,2013-02-25 20:01:00,
2013-02-25 12:11:00,37.0,11.0,-100.00,East,100,4.0,6.0,33,-99.99,,,-99.99,,2013-02-25 20:11:00,
2013-02-25 12:21:00,38.0,10.0,-100.00,East,93,3.0,5.0,31,-99.99,,,-99.99,,2013-02-25 20:21:00,
2013-02-25 12:31:00,37.0,3.0,-100.00,NE,55,2.0,4.0,23,-99.99,,,-99.99,,2013-02-25 20:31:00,
2013-02-25 12:41:00,37.0,3.0,-100.00,NE,55,2.0,4.0,23,-99.99,,,-99.99,,2013-02-25 20:41:00,
2013-02-25 13:01:00,38.0,10.0,-100.00,North,353,6.0,9.0,30,-99.99,,,-99.99,,2013-02-25 21:01:00,
2013-02-25 13:11:00,39.0,9.0,-100.00,North,353,7.0,10.0,29,-99.99,,,-99.99,,2013-02-25 21:11:00,
2013-02-25 13:21:00,39.0,10.0,-100.00,NNE,13,5.0,7.0,29,-99.99,,,-99.99,,2013-02-25 21:21:00,
2013-02-25 13:31:00,39.0,10.0,-100.00,NNE,13,5.0,7.0,29,-99.99,,,-99.99,,2013-02-25 21:31:00,
2013-02-25 13:42:00,41.0,8.0,-100.00,ENE,65,3.0,6.0,25,-99.99,,,-99.99,,2013-02-25 21:42:00,
2013-02-25 13:52:00,41.0,8.0,-100.00,East,82,3.0,5.0,25,-99.99,,,-99.99,,2013-02-25 21:52:00,
2013-02-25 14:01:00,41.0,10.0,-100.00,East,93,4.0,6.0,27,-99.99,,,-99.99,,2013-02-25 22:01:00,
2013-02-25 14:11:00,41.0,10.0,-100.00,East,93,4.0,6.0,27,-99.99,,,-99.99,,2013-02-25 22:11:00,
2013-02-25 14:21:00,41.0,11.0,-100.00,NE,56,3.0,5.0,28,-99.99,,,-99.99,,2013-02-25 22:21:00,
2013-02-25 14:32:00,43.0,10.0,-100.00,East,80,2.0,4.0,26,-99.99,,,-99.99,,2013-02-25 22:32:00,
2013-02-25 14:41:00,43.0,11.0,-100.00,East,85,3.0,4.0,26,-99.99,,,-99.99,,2013-02-25 22:41:00,
2013-02-25 14:51:00,44.0,9.0,-100.00,East,93,3.0,4.0,24,-99.99,,,-99.99,,2013-02-25 22:51:00,
2013-02-25 15:01:00,45.0,6.0,-100.00,SE,131,2.0,5.0,20,-99.99,,,-99.99,,2013-02-25 23:01:00,
2013-02-25 15:11:00,44.0,10.0,-100.00,SW,234,7.0,19.0,25,-99.99,,,-99.99,,2013-02-25 23:11:00,
2013-02-25 15:22:00,43.0,7.0,-100.00,WSW,258,9.0,15.0,22,-99.99,,,-99.99,,2013-02-25 23:22:00,
2013-02-25 15:31:00,43.0,10.0,-100.00,WSW,243,10.0,16.0,25,-99.99,,,-99.99,,2013-02-25 23:31:00,
2013-02-25 15:41:00,43.0,9.0,-100.00,SW,216,10.0,14.0,24,-99.99,,,-99.99,,2013-02-25 23:41:00,
2013-02-25 15:52:00,43.0,9.0,-100.00,SW,216,10.0,14.0,24,-99.99,,,-99.99,,2013-02-25 23:52:00,
2013-02-25 16:01:00,42.0,9.0,-100.00,SSW,213,12.0,17.0,26,-99.99,,,-99.99,,2013-02-26 00:01:00,
2013-02-25 16:12:00,41.0,7.0,-100.00,SW,222,13.0,17.0,24,-99.99,,,-99.99,,2013-02-26 00:12:00,
2013-02-25 16:21:00,41.0,7.0,-100.00,SW,222,13.0,17.0,24,-99.99,,,-99.99,,2013-02-26 00:21:00,
2013-02-25 16:32:00,41.0,9.0,-100.00,SW,216,12.0,17.0,26,-99.99,,,-99.99,,2013-02-26 00:32:00,
2013-02-25 16:41:00,41.0,9.0,-100.00,SW,222,13.0,17.0,27,-99.99,,,-99.99,,2013-02-26 00:41:00,
2013-02-25 16:51:00,41.0,9.0,-100.00,SW,222,13.0,17.0,27,-99.99,,,-99.99,,2013-02-26 00:51:00,
2013-02-25 17:02:00,39.0,10.0,-100.00,West,260,12.0,17.0,30,-99.99,,,-99.99,,2013-02-26 01:02:00,
2013-02-25 17:11:00,39.0,10.0,-100.00,West,260,12.0,17.0,30,-99.99,,,-99.99,,2013-02-26 01:11:00,
2013-02-25 17:21:00,34.0,16.0,-100.00,NW,304,18.0,33.0,46,-99.99,,,-99.99,,2013-02-26 01:21:00,
2013-02-25 17:31:00,34.0,16.0,-100.00,NW,304,18.0,33.0,46,-99.99,,,-99.99,,2013-02-26 01:31:00,
2013-02-25 17:41:00,34.0,18.0,-100.00,NW,316,21.0,33.0,52,-99.99,,,-99.99,,2013-02-26 01:41:00,
2013-02-25 17:51:00,33.0,18.0,-100.00,NW,312,19.0,28.0,53,-99.99,,,-99.99,,2013-02-26 01:51:00,
2013-02-25 18:01:00,33.0,18.0,-100.00,NW,312,19.0,28.0,53,-99.99,,,-99.99,,2013-02-26 02:01:00,
2013-02-25 18:11:00,32.0,17.0,-100.00,NW,312,22.0,32.0,52,-99.99,,,-99.99,,2013-02-26 02:11:00,
2013-02-25 18:21:00,32.0,17.0,-100.00,NW,312,22.0,32.0,52,-99.99,,,-99.99,,2013-02-26 02:21:00,
2013-02-25 18:32:00,27.0,21.0,-100.00,NW,325,28.0,38.0,76,-99.99,,,-99.99,,2013-02-26 02:32:00,
2013-02-25 18:40:00,26.0,19.0,-100.00,NNW,332,16.0,22.0,74,-99.99,,,-99.99,,2013-02-26 02:40:00,
2013-02-25 18:41:00,27.0,19.0,-100.00,NW,325,28.0,37.0,72,-99.99,,,-99.99,,2013-02-26 02:41:00,
2013-02-25 18:52:00,26.0,19.0,-100.00,NW,323,25.0,35.0,72,-99.99,,,-99.99,,2013-02-26 02:52:00,
2013-02-25 19:01:00,26.0,20.0,-100.00,NW,325,22.0,32.0,76,-99.99,,,-99.99,,2013-02-26 03:01:00,
2013-02-25 19:11:00,26.0,19.0,-100.00,NNW,329,15.0,22.0,75,-99.99,,,-99.99,,2013-02-26 03:11:00,
2013-02-25 19:21:00,26.0,19.0,-100.00,NNW,332,16.0,22.0,74,-99.99,,,-99.99,,2013-02-26 03:21:00,
2013-02-25 19:31:00,26.0,19.0,-100.00,NNW,332,16.0,22.0,74,-99.99,,,-99.99,,2013-02-26 03:31:00,
2013-02-25 20:01:00,24.0,19.0,-100.00,NW,308,6.0,10.0,79,-99.99,,,-99.99,,2013-02-26 04:01:00,
2013-02-25 20:11:00,23.0,18.0,-100.00,NW,304,5.0,7.0,81,-99.99,,,-99.99,,2013-02-26 04:11:00,
2013-02-25 20:21:00,23.0,18.0,-100.00,NW,312,5.0,7.0,83,-99.99,,,-99.99,,2013-02-26 04:21:00,
2013-02-25 20:32:00,23.0,18.0,-100.00,NW,312,5.0,7.0,83,-99.99,,,-99.99,,2013-02-26 04:32:00,
2013-02-25 21:01:00,19.0,15.0,-100.00,NE,35,2.0,5.0,84,-99.99,,,-99.99,,2013-02-26 05:01:00,
2013-02-25 21:11:00,19.0,16.0,-100.00,NE,52,6.0,9.0,90,-99.99,,,-99.99,,2013-02-26 05:11:00,
2013-02-25 21:21:00,18.0,14.0,-100.00,NNE,24,4.0,11.0,83,-99.99,,,-99.99,,2013-02-26 05:21:00,
2013-02-25 21:31:00,18.0,14.0,-100.00,NNE,24,4.0,11.0,83,-99.99,,,-99.99,,2013-02-26 05:31:00,
2013-02-25 21:42:00,18.0,14.0,-100.00,ENE,73,4.0,6.0,85,-99.99,,,-99.99,,2013-02-26 05:42:00,
2013-02-25 21:52:00,18.0,15.0,-100.00,East,80,3.0,6.0,86,-99.99,,,-99.99,,2013-02-26 05:52:00,
2013-02-25 22:01:00,19.0,15.0,-100.00,East,90,3.0,6.0,86,-99.99,,,-99.99,,2013-02-26 06:01:00,
2013-02-25 22:11:00,17.0,14.0,-100.00,East,83,3.0,5.0,86,-99.99,,,-99.99,,2013-02-26 06:11:00,
2013-02-25 22:21:00,16.0,13.0,-100.00,NE,41,3.0,6.0,86,-99.99,,,-99.99,,2013-02-26 06:21:00,
2013-02-25 22:31:00,15.0,12.0,-100.00,ENE,58,2.0,4.0,86,-99.99,,,-99.99,,2013-02-26 06:31:00,
2013-02-25 22:41:00,14.0,10.0,-100.00,ESE,104,2.0,3.0,86,-99.99,,,-99.99,,2013-02-26 06:41:00,
2013-02-25 22:51:00,14.0,12.0,-100.00,ESE,120,3.0,4.0,89,-99.99,,,-99.99,,2013-02-26 06:51:00,
2013-02-25 23:01:00,14.0,12.0,-100.00,ESE,120,3.0,4.0,89,-99.99,,,-99.99,,2013-02-26 07:01:00,
2013-02-25 23:22:00,11.0,9.0,-100.00,ESE,110,5.0,6.0,89,-99.99,,,-99.99,,2013-02-26 07:22:00,
2013-02-25 23:31:00,12.0,10.0,-100.00,ESE,116,5.0,6.0,90,-99.99,,,-99.99,,2013-02-26 07:31:00,
2013-02-25 23:41:00,14.0,12.0,-100.00,ESE,117,4.0,6.0,88,-99.99,,,-99.99,,2013-02-26 07:41:00,
2013-02-25 23:51:00,15.0,11.0,-100.00,East,90,3.0,5.0,85,-99.99,,,-99.99,,2013-02-26 07:51:00,